Location: Palombina Nuova
(43.6167°N, 13.4000°E)
Time: 15:23:01
(UTC+00:00)

CZ-4B R/B - Pass Details

Date: 17 February 2020
Orbit: 486 x 653 km, 97.9° (Epoch: 27 March)

Event Time Altitude Azimuth Distance (km) Brightness Sun altitude
Rises 05:11:58 0° 353° (N) 2,649 6.2 -9.9°
Reaches altitude 10° 05:15:06 10° 324° (NW) 1,726 4.9 -9.3°
Maximum altitude 05:16:45 13° 298° (WNW) 1,547 4.5 -9.0°
Enters shadow 05:17:35 12° 283° (WNW) 1,585 4.5 -8.9°
